When you browse on this site, cookies collect data to enhance your experience and personalize the content and advertising you see.
Visit our Privacy Policy to learn more. By continuing to use the site, you agree to this use of cookies and data.
  • In Romania
  • List of Countries
  • For 7 days
  • Water Temperature
  • Weather Map
  • Weather Widgets
  • user-avatar
    Login

    Hourly Weather Liverpool

    Today, 30 May, Saturday

    Time Temperature Precipitation Wind Pressure Humidity
    00:00 +13°C° 0 mm 4 mps 768 mmHg 79%
    01:00 +12°C° 0 mm 4 mps 768 mmHg 79%
    02:00 +11°C° 0 mm 4 mps 768 mmHg 79%
    03:00 +11°C° 0 mm 4 mps 768 mmHg 79%
    04:00 +11°C° 0 mm 4 mps 768 mmHg 75%
    05:00 +11°C° 0 mm 3 mps 768 mmHg 70%
    06:00 +11°C° 0 mm 3 mps 768 mmHg 66%
    07:00 +13°C° 0 mm 3 mps 768 mmHg 59%
    08:00 +15°C° 0 mm 4 mps 768 mmHg 53%
    09:00 +17°C° 0 mm 4 mps 768 mmHg 46%
    10:00 +19°C° 0 mm 4 mps 767 mmHg 47%
    11:00 +20°C° 0 mm 4 mps 767 mmHg 47%
    12:00 +21°C° 0 mm 4 mps 767 mmHg 47%
    13:00 +22°C° 0 mm 4 mps 767 mmHg 49%
    14:00 +22°C° 0 mm 4 mps 766 mmHg 50%
    15:00 +22°C° 0 mm 3 mps 766 mmHg 51%
    16:00 +22°C° 0 mm 4 mps 766 mmHg 55%
    17:00 +21°C° 0 mm 4 mps 766 mmHg 59%
    18:00 +21°C° 0 mm 4 mps 766 mmHg 63%
    19:00 +19°C° 0 mm 4 mps 766 mmHg 66%
    20:00 +17°C° 0 mm 5 mps 766 mmHg 69%
    21:00 +15°C° 0 mm 5 mps 767 mmHg 72%
    22:00 +14°C° 0 mm 5 mps 767 mmHg 75%
    23:00 +13°C° 0 mm 5 mps 767 mmHg 79%

    Tomorrow, 31 May, Sunday

    Time Temperature Precipitation Wind Pressure Humidity
    00:00 +12°C° 0 mm 4 mps 767 mmHg 82%
    01:00 +12°C° 0 mm 4 mps 767 mmHg 83%
    02:00 +11°C° 0 mm 4 mps 767 mmHg 83%
    03:00 +11°C° 0 mm 3 mps 767 mmHg 84%
    04:00 +11°C° 0 mm 3 mps 767 mmHg 81%
    05:00 +12°C° 0 mm 3 mps 767 mmHg 79%
    06:00 +12°C° 0 mm 3 mps 767 mmHg 76%
    07:00 +14°C° 0 mm 3 mps 767 mmHg 70%
    08:00 +17°C° 0 mm 4 mps 767 mmHg 65%
    09:00 +19°C° 0 mm 4 mps 767 mmHg 59%
    10:00 +20°C° 0 mm 4 mps 767 mmHg 56%
    11:00 +21°C° 0 mm 4 mps 767 mmHg 52%
    12:00 +22°C° 0 mm 4 mps 767 mmHg 49%
    13:00 +22°C° 0 mm 4 mps 767 mmHg 49%
    14:00 +22°C° 0 mm 4 mps 767 mmHg 50%
    15:00 +22°C° 0 mm 4 mps 767 mmHg 50%
    16:00 +22°C° 0 mm 4 mps 767 mmHg 53%
    17:00 +21°C° 0 mm 4 mps 767 mmHg 56%
    18:00 +21°C° 0 mm 4 mps 767 mmHg 60%
    19:00 +19°C° 0 mm 4 mps 768 mmHg 62%
    20:00 +18°C° 0 mm 4 mps 768 mmHg 65%
    21:00 +15°C° 0 mm 4 mps 768 mmHg 68%
    22:00 +14°C° 0 mm 4 mps 769 mmHg 71%
    23:00 +13°C° 0 mm 4 mps 769 mmHg 73%

    Day after tomorrow, 1 June, Monday

    Time Temperature Precipitation Wind Pressure Humidity
    00:00 +12°C° 0 mm 3 mps 769 mmHg 76%
    01:00 +11°C° 0 mm 3 mps 769 mmHg 78%
    02:00 +11°C° 0 mm 3 mps 769 mmHg 80%
    03:00 +10°C° 0 mm 2 mps 769 mmHg 82%
    04:00 +12°C° 0 mm 2 mps 769 mmHg 79%
    05:00 +12°C° 0 mm 2 mps 769 mmHg 77%
    06:00 +12°C° 0 mm 3 mps 769 mmHg 74%
    07:00 +14°C° 0 mm 3 mps 769 mmHg 69%
    08:00 +16°C° 0 mm 3 mps 769 mmHg 63%
    09:00 +18°C° 0 mm 3 mps 769 mmHg 58%
    10:00 +19°C° 0 mm 3 mps 769 mmHg 56%
    11:00 +20°C° 0 mm 3 mps 769 mmHg 54%
    12:00 +21°C° 0 mm 3 mps 769 mmHg 52%
    13:00 +22°C° 0 mm 3 mps 768 mmHg 51%
    14:00 +22°C° 0 mm 3 mps 768 mmHg 51%
    15:00 +22°C° 0 mm 3 mps 768 mmHg 50%
    16:00 +21°C° 0 mm 3 mps 768 mmHg 51%
    17:00 +21°C° 0 mm 3 mps 768 mmHg 52%
    18:00 +20°C° 0 mm 4 mps 767 mmHg 53%
    19:00 +18°C° 0 mm 3 mps 768 mmHg 58%
    20:00 +16°C° 0 mm 3 mps 768 mmHg 63%
    21:00 +13°C° 0 mm 3 mps 768 mmHg 69%
    22:00 +12°C° 0 mm 3 mps 768 mmHg 70%
    23:00 +11°C° 0 mm 3 mps 768 mmHg 72%

    2 June, Tuesday

    Time Temperature Precipitation Wind Pressure Humidity
    00:00 +10°C° 0 mm 2 mps 768 mmHg 74%
    01:00 +10°C° 0 mm 2 mps 768 mmHg 75%
    02:00 +9°C° 0 mm 2 mps 767 mmHg 77%
    03:00 +10°C° 0 mm 1 mps 767 mmHg 78%
    04:00 +11°C° 0 mm 1 mps 767 mmHg 76%
    05:00 +12°C° 0 mm 1 mps 767 mmHg 73%
    06:00 +13°C° 0 mm 1 mps 766 mmHg 71%
    07:00 +15°C° 0 mm 1 mps 766 mmHg 63%
    08:00 +18°C° 0 mm 1 mps 766 mmHg 56%
    09:00 +20°C° 0 mm 1 mps 766 mmHg 48%
    10:00 +21°C° 0 mm 1 mps 765 mmHg 45%
    11:00 +21°C° 0 mm 2 mps 765 mmHg 42%
    12:00 +23°C° 0 mm 2 mps 764 mmHg 39%
    13:00 +21°C° 0 mm 3 mps 764 mmHg 42%
    14:00 +21°C° 0 mm 3 mps 763 mmHg 45%
    15:00 +21°C° 0 mm 4 mps 763 mmHg 47%
    16:00 +20°C° 0 mm 4 mps 762 mmHg 51%
    17:00 +19°C° 0 mm 4 mps 762 mmHg 55%
    18:00 +18°C° 0 mm 4 mps 761 mmHg 59%
    19:00 +17°C° 0 mm 4 mps 761 mmHg 66%
    20:00 +14°C° 0 mm 4 mps 761 mmHg 73%
    21:00 +13°C° 0 mm 4 mps 761 mmHg 79%
    22:00 +13°C° 0 mm 4 mps 761 mmHg 83%
    23:00 +13°C° 0 mm 4 mps 761 mmHg 86%

    3 June, Wednesday

    Time Temperature Precipitation Wind Pressure Humidity
    00:00 +13°C° 0 mm 5 mps 760 mmHg 89%
    01:00 +13°C° 0.1 mm 4 mps 760 mmHg 87%
    02:00 +13°C° 0.1 mm 4 mps 760 mmHg 86%
    03:00 +12°C° 0.1 mm 4 mps 759 mmHg 85%
    04:00 +12°C° 0.5 mm 4 mps 759 mmHg 85%
    05:00 +12°C° 0.5 mm 5 mps 759 mmHg 85%
    06:00 +11°C° 0.5 mm 6 mps 759 mmHg 86%
    07:00 +11°C° 0.8 mm 6 mps 759 mmHg 85%
    08:00 +12°C° 0.8 mm 5 mps 759 mmHg 84%
    09:00 +10°C° 0.8 mm 5 mps 759 mmHg 84%
    10:00 +12°C° 0.2 mm 5 mps 759 mmHg 82%
    11:00 +11°C° 0.2 mm 6 mps 759 mmHg 80%
    12:00 +11°C° 0.2 mm 6 mps 759 mmHg 78%
    13:00 +11°C° 0.1 mm 6 mps 759 mmHg 76%
    14:00 +11°C° 0.1 mm 6 mps 759 mmHg 74%
    15:00 +12°C° 0.1 mm 7 mps 759 mmHg 72%
    16:00 +11°C° 0 mm 7 mps 759 mmHg 71%
    17:00 +11°C° 0 mm 7 mps 759 mmHg 69%
    18:00 +11°C° 0 mm 7 mps 759 mmHg 68%
    19:00 +10°C° 0 mm 7 mps 759 mmHg 68%
    20:00 +10°C° 0 mm 6 mps 759 mmHg 68%
    21:00 +9°C° 0 mm 6 mps 759 mmHg 68%
    22:00 +8°C° 0 mm 6 mps 759 mmHg 69%
    23:00 +8°C° 0 mm 6 mps 759 mmHg 69%

    4 June, Thursday

    Time Temperature Precipitation Wind Pressure Humidity
    00:00 +7°C° 0 mm 6 mps 758 mmHg 70%
    01:00 +7°C° 0 mm 5 mps 758 mmHg 70%
    02:00 +7°C° 0 mm 5 mps 758 mmHg 69%
    03:00 +7°C° 0 mm 5 mps 757 mmHg 69%
    04:00 +7°C° 0 mm 5 mps 757 mmHg 70%
    05:00 +7°C° 0 mm 5 mps 756 mmHg 70%
    06:00 +8°C° 0 mm 5 mps 756 mmHg 71%
    07:00 +8°C° 0 mm 5 mps 756 mmHg 69%
    08:00 +9°C° 0 mm 5 mps 755 mmHg 67%
    09:00 +10°C° 0 mm 5 mps 755 mmHg 66%
    10:00 +12°C° 0 mm 5 mps 755 mmHg 64%
    11:00 +13°C° 0 mm 5 mps 754 mmHg 62%
    12:00 +14°C° 0 mm 5 mps 754 mmHg 61%
    13:00 +14°C° 0 mm 5 mps 753 mmHg 61%
    14:00 +14°C° 0 mm 5 mps 753 mmHg 62%
    15:00 +14°C° 0 mm 5 mps 752 mmHg 63%
    16:00 +14°C° 0 mm 5 mps 752 mmHg 64%
    17:00 +13°C° 0 mm 5 mps 751 mmHg 65%
    18:00 +13°C° 0 mm 4 mps 751 mmHg 66%
    19:00 +12°C° 0 mm 4 mps 750 mmHg 70%
    20:00 +10°C° 0 mm 4 mps 750 mmHg 73%
    21:00 +9°C° 0 mm 3 mps 750 mmHg 77%
    22:00 +8°C° 0 mm 3 mps 749 mmHg 79%
    23:00 +8°C° 0 mm 3 mps 748 mmHg 80%
    Show more